Regional Weather Roundup
Issued by NWS Sterling, VA

Home | Current Version | Previous Version | Text Only | Print | Product List | Glossary On
Versions: 1 2 3 4 5 6 7 8 9 10 11 12 13 14 15 16 17 18 19 20 21 22 23 24 25 26 27
000
ASUS41 KLWX 240910
RWRLWX

REGIONAL WEATHER ROUNDUP
NATIONAL WEATHER SERVICE BALTIMORE MD/WASHINGTON DC
500 AM EDT FRI OCT 24 2014

Note: "FAIR" indicates few or no clouds below 12,000 feet
with no significant weather and/or obstructions to visibility.
 TC=TEMPERATURE CELSIUS

 * =Non NWS site. Station does not report precipitation (e.g. rain,
    snow, etc.), thunder, or fog.

DCZ001-MDZ009-015-VAZ040>042-051-053>054-241000-
WASHINGTON METRO

CITY           SKY/WX    TMP DP  RH WIND       PRES   REMARKS
WASHINGTON NAT CLEAR     57  41  55 NW10      29.94R
DULLES         CLEAR     51  42  71 NW7       29.96R
ANDREWS AFB    CLEAR     54  42  64 NW12      29.92R
FT BELVOIR     CLEAR     53  42  66 W5        29.95R
QUANTICO       CLEAR     53  42  66 NW8       29.97R
COLLEGE PARK*  CLEAR     54  43  66 W3        29.92R
LEESBURG*      CLEAR     54  45  71 NW16      29.96R
MANASSAS*      CLEAR     54  45  71 NW15      29.96R
GAITHERSBURG*  CLEAR     50  41  71 W6        29.97R

$$

MDZ006>007-011-014-241000-
BALTIMORE METRO

CITY           SKY/WX    TMP DP  RH WIND       PRES   REMARKS
BWI AIRPORT    PTCLDY    54  42  64 NW7       29.89S
MD SCIENCE CTR   N/A     56  41  57 MISG      29.89S
MARTIN STATE   CLEAR     54  45  71 CALM      29.90R
ANNAPOLIS      CLEAR     55  42  61 NW7       29.89S
FORT MEADE*    CLEAR     46  43  87 W3        29.93S

$$

MDZ012-015-019>023-241000-
MARYLAND EASTERN SHORE

CITY           SKY/WX    TMP DP  RH WIND       PRES   REMARKS
OCEAN CITY     CLOUDY    53  46  77 W6        29.86R
SALISBURY      CLOUDY    58  46  64 NW8       29.87S
BAY BRIDGE AP*   N/A     55  41  58 NW10G18   29.89S
CAMBRIDGE*     PTCLDY    59  43  55 NW12G18   29.89R
EASTON*        PTCLDY    57  46  66 NW13      29.92R

$$

MDZ017>025-241000-
SOUTHERN MARYLAND

CITY           SKY/WX    TMP DP  RH WIND       PRES   REMARKS
PATUXENT RIVER CLEAR     55  41  59 W15       29.91R
ST INIGOES     CLEAR     56  40  55 VRB5      29.91R
LEONARDTOWN*   CLEAR     52  41  66 W3        29.94R

$$

MDZ003>005-241000-
NORTH CENTRAL MARYLAND

CITY           SKY/WX    TMP DP  RH WIND       PRES   REMARKS
FREDERICK*     CLEAR     55  41  58 NW6       29.97S
HAGERSTOWN APT CLEAR     52  42  69 W9        29.97R
WESTMINSTER*   PTCLDY    54  45  71 NW12G20   29.91S

$$

MDZ501>502-241000-
WESTERN MARYLAND

CITY           SKY/WX    TMP DP  RH WIND       PRES   REMARKS
OAKLAND*       CLOUDY    39 N/A N/A NW8G16    30.04F HAZE
CUMBERLAND*    PTCLDY    52  43  71 NW12      30.06R

$$

VAZ025>031-241000-
SHENANDOAH VALLEY

CITY           SKY/WX    TMP DP  RH WIND       PRES   REMARKS
WINCHESTER*    CLEAR     52  37  58 NW9       29.99R
FRONT ROYAL*   FAIR      52  41  66 CALM      29.97R
LURAY*         FAIR      54  43  66 NW5       29.99R
NEW MARKET*    FAIR      50  40  69 NW3       29.99S
STAUNTON*      CLEAR     36  33  89 SW3       30.02R
WAYNESBORO*    FAIR      44  38  80 W9        30.00F

$$

WVZ021-048>050-054>055-241000-
EASTERN WEST VIRGINIA PANHANDLE

CITY           SKY/WX    TMP DP  RH WIND       PRES   REMARKS
MARTINSBURG    CLEAR     52  40  63 NW10      29.98R
PETERSBURG*    CLEAR     39  37  93 CALM      30.04R

$$

VAZ036>039-050-241000-
CENTRAL FOOTHILLS

CITY           SKY/WX    TMP DP  RH WIND       PRES   REMARKS
CHARLOTTESVILL CLEAR     54  39  57 CALM      29.98R
CULPEPER*      CLEAR     48  43  81 W3        29.98R
ORANGE*        CLEAR     45  41  87 CALM      29.98R
GORDONSVILLE*  FAIR      53  40  62 NW7       29.95F
WARRENTON*     FAIR      50  46  88 NE3       29.96R

$$

VAZ055>057-241000-
NORTH AND CENTRAL PIEDMONT

CITY           SKY/WX    TMP DP  RH WIND       PRES   REMARKS
FREDERICKSBRG* CLEAR     53  44  70 W5        29.95R
STAFFORD*      CLEAR     47  41  78 CALM      30.00R

$$

NCZ024-NYZ072-PAZ021-071-VAZ022-071-241000-
OTHER REGIONAL OBSERVATIONS

CITY           SKY/WX    TMP DP  RH WIND       PRES   REMARKS
NEW YORK CITY  PTCLDY    51  42  71 W3        29.81S
PHILADELPHIA   CLOUDY    57  44  62 NW10      29.85R
PITTSBURGH     MOCLDY    40  38  93 W5        30.07F
ROANOKE        MOCLDY    47  39  74 W10       30.08S
RICHMOND       CLEAR     52  42  69 NW8       29.96R
RALEIGH        MOCLDY    48  40  73 CALM      30.02R

$$

ANZ530>537-241000-
MARINE OBSERVATIONS

STATION/POSITION TIME  TEMP    WIND        PRES
                       AIR SEA DIR/SP/G
                 (UTC) (F)     (DEG/KT/KT) (MB)
THOMAS PT LIGHT  0900   56 62  300/ 14/ 15 1013.4R
BALT KEY BRIDGE  0900   57     290/ 15/ 19 1011.7R
COVE POINT       0900   56     320/ 12/ 16 1012.6R
LEWISETTA        0900   58 59  330/ 15/ 21 1012.8R
SOLOMONS ISLAND  0900      64                N/A
PINEY POINT      0900          340/ 21/ 24   N/A

$$




USA.gov is the U.S. government's official web portal to all federal, state and local government web resources and services.